This is the latest recevied weather packets stored in our database for station/object SP6PWT-13. If no packets are shown the sender has not sent any weather packets the latest 10 day(s).
| Time | Temp. | Humidity | Pressure | Rain* | Wind** | Luminosity | Snow |
|---|---|---|---|---|---|---|---|
| 1777437299 | 3.33° C | 55% | 1010.5 hPa | 0 mm | - | 45 W/m² | - |
| 1777436999 | 3.33° C | 55% | 1010.5 hPa | 0 mm | - | 40 W/m² | - |
| 1777436698 | 3.33° C | 55% | 1010.3 hPa | 0 mm | - | 35 W/m² | - |
| 1777436397 | 3.33° C | 55% | 1010.4 hPa | 0 mm | - | 31 W/m² | - |
| 1777436097 | 3.33° C | 55% | 1010 hPa | 0 mm | - | 25 W/m² | - |
| 1777435797 | 3.33° C | 56% | 1010.2 hPa | 0 mm | - | 23 W/m² | - |
| 1777435496 | 3.33° C | 56% | 1010.3 hPa | 0 mm | - | 20 W/m² | - |
| 1777435195 | 3.33° C | 56% | 1010 hPa | 0 mm | - | 17 W/m² | - |
| 1777434895 | 2.78° C | 57% | 1010.1 hPa | 0 mm | - | 13 W/m² | - |
| 1777434594 | 3.33° C | 57% | 1009.9 hPa | 0 mm | - | 10 W/m² | - |
| 1777434294 | 3.33° C | 57% | 1010.1 hPa | 0 mm | - | 8 W/m² | - |
| 1777433993 | 3.33° C | 57% | 1009.8 hPa | 0 mm | - | 6 W/m² | - |
| 1777433693 | 3.33° C | 58% | 1009.9 hPa | 0 mm | - | 4 W/m² | - |
| 1777433391 | 3.33° C | 58% | 1009.8 hPa | 0 mm | - | 3 W/m² | - |
| 1777433091 | 3.33° C | 59% | 1009.8 hPa | 0 mm | - | 1 W/m² | - |
| 1777432791 | 3.33° C | 59% | 1009.7 hPa | 0 mm | - | 1 W/m² | - |
| 1777432490 | 3.33° C | 58% | 1009.8 hPa | 0 mm | - | 0 W/m² | - |
| 1777432190 | 3.33° C | 59% | 1009.7 hPa | 0 mm | - | 0 W/m² | - |
| 1777431889 | 3.33° C | 60% | 1009.7 hPa | 0 mm | - | 0 W/m² | - |
| 1777431589 | 3.33° C | 60% | 1009.7 hPa | 0 mm | - | 0 W/m² | - |
| 1777431288 | 3.33° C | 60% | 1009.6 hPa | 0 mm | - | 0 W/m² | - |
| 1777430987 | 3.33° C | 60% | 1009.7 hPa | 0 mm | - | 0 W/m² | - |
| 1777430686 | 3.33° C | 61% | 1009.7 hPa | 0 mm | - | 0 W/m² | - |
| 1777430386 | 3.33° C | 61% | 1009.6 hPa | 0 mm | - | 0 W/m² | - |
| 1777430085 | 3.89° C | 61% | 1009.6 hPa | 0 mm | - | 0 W/m² | - |
* Rain latest hour (hover to see other rain measurements)
** Current wind speed in m/s (hover to see current wind gust speed)